Flag for Malaysia Weather past 2 weeks in Kuala Lumpur, Malaysia

Now
81 °F

Partly cloudy.


Feels Like: 85 °F
Forecast: 71 / 94 °F
Wind: No wind

Location: Sultan Abdul Aziz Shah-Subang

Current Time: Jul 26, 2014 at 7:27:53 AM

Latest Report: Jul 26, 2014 at 7:00 AM


Visibility: 4 mi

Pressure: 29.86 "Hg

Humidity: 79%

Dew point: 73 °F

Location of Kuala LumpurLocation

Historic Weather in Kuala Lumpur — Graph

°F

Kuala Lumpur temperature yesterday

Maximum temperature yesterday: 93 °F (at 1:00 PM)
Minimum temperature yesterday: 81 °F (at 3:00 AM)
Average temperature yesterday: 87 °F

Past Weeks' High & Low Weather Summary

 TemperatureHumidityPressure
High95 °F (Jul 15, 3:00 PM)94% (Jul 11, 2:00 PM)29.89 "Hg (Jul 11, 2:00 PM)
Low75 °F (Jul 20, 6:00 AM)32% (Jul 19, 3:00 PM)29.71 "Hg (Jul 13, 4:00 PM)
Average86 °F68%29.80 "Hg
* Reported Jul 11 6:00 AM — Jul 26 6:00 AM, Kuala Lumpur, Weather by CustomWeather, © 2014

Note: Actual official high and low records may vary slightly from our data, if they occured in-between our weather recording intervals... More about our weather records

Advertising

Kuala Lumpur weather history for previous 24 hours

 ConditionsComfort  
Time TempWeatherWind HumidityBarometerVisibility
6:00 AM
Jul 26
81 °FPartly cloudy.No wind79%29.83 "Hg4 mi
5:00 AM81 °FPassing clouds.No wind79%29.83 "Hg4 mi
4:00 AM81 °FPassing clouds.No wind79%29.80 "Hg4 mi
3:00 AM81 °FPassing clouds.No wind79%29.80 "Hg4 mi
2:00 AM81 °FPartly cloudy.No wind79%29.83 "Hg4 mi
1:00 AM82 °FPassing clouds.No wind74%29.86 "Hg4 mi
12:00 AM82 °FPassing clouds.1 mph74%29.86 "Hg4 mi
11:00 PM
Jul 25
84 °FPassing clouds.1 mph70%29.86 "Hg4 mi
10:00 PM86 °FPassing clouds.No wind66%29.83 "Hg4 mi
9:00 PM88 °FPassing clouds.1 mph62%29.80 "Hg3 mi
8:00 PM90 °FPartly cloudy.3 mph59%29.80 "Hg4 mi
7:00 PM91 °FPartly sunny.3 mph52%29.77 "Hg6 mi
6:00 PM93 °FPartly sunny.3 mph44%29.74 "HgN/A
5:00 PM93 °FBroken clouds.6 mph44%29.74 "HgN/A
4:00 PM93 °FBroken clouds.7 mph44%29.77 "HgN/A
3:00 PM93 °FPartly sunny.9 mph41%29.80 "HgN/A
2:00 PM93 °FPartly sunny.10 mph44%29.80 "HgN/A
1:00 PM93 °FPartly sunny.10 mph44%29.83 "HgN/A
12:00 PM91 °FPartly sunny.10 mph52%29.83 "Hg4 mi
11:00 AM90 °FBroken clouds.13 mph52%29.86 "Hg4 mi
10:00 AM88 °FBroken clouds.12 mph55%29.86 "Hg5 mi
9:00 AM84 °FBroken clouds.9 mph66%29.86 "Hg5 mi
8:00 AM82 °FBroken clouds.7 mph74%29.83 "Hg5 mi
7:00 AM81 °FPartly cloudy.3 mph79%29.83 "Hg5 mi
Weather by CustomWeather, © 2014

See weather overviewHow to use our weather pages